Rbgn^[z[y[W
メイン
   新天体発見情報
     Comet P/2018 A5 (PANSTARRS)
投稿するにはまず登録を

スレッド表示 | 新しいものから 前のトピック | 次のトピック | 下へ
投稿者 スレッド
佐藤裕久
投稿日時: 2018-1-28 20:59
モデレータ
登録日: 2005-6-12
居住地: 日本
投稿: 2505
オンライン
Comet P/2018 A5 (PANSTARRS)

R. J. Wainscoatの通報によると、1月13.5日、Haleakala にある1.8-m Pan-STARRS1 Ritchey-Chretien
望遠鏡で得たCCD画像から他の彗星を発見した。2017年11月と12月一夜の早期観測があり、その後
同定された。この彗星は近傍の恒星と比べ少しぼやけて見え、1月13日の画像では尾の気配がある
ようである。
M. MicheliとR. J. Wainscoatの書込みによると、1月15.5日UT、Mauna Keaにある3.6-m Canada-France-
Hawaii Telescopeで得た3枚の60秒のgri-フィルターによるフォローアップCCD露出で、恒星状の核
とp.a.約250°に15"の尾が見える。
小惑星センターのPCCP webpageに公表後佐藤英貴氏(東京都文京区, iTelescope天文台,1月15.3日UT、
60秒露出12枚のスタック, 0.51-m f/6.8 アストログラフ, Mayhill近郊, ニューメキシコ州, 
遠隔操作:強い集光のある10" のコマがあるが明らかな尾はない。5".7.の円形範囲で測定したこの
彗星のw-バンド光度は19.8等であった)によって彗星状と観測された。

発見位置は次のとおり、

     2017 UT             R.A. (2000) Decl.       Mag.
     Nov. 21.53032    8 20 36.51   +27 43 31.5   21.9
          21.54176    8 20 36.79   +27 43 38.0   22.1
          21.55324    8 20 37.13   +27 43 44.5   22.2
          21.56474    8 20 37.45   +27 43 51.0   22.2
     Dec. 13.46815    8 24 51.35   +31 39 36.5   21.7
          13.48009    8 24 51.26   +31 39 45.0   21.7
          13.49205    8 24 51.16   +31 39 53.6   21.4
          13.50400    8 24 51.04   +31 40 02.3   21.7
          24.56891    8 21 59.37   +33 55 32.4   21.5
          24.57994    8 21 59.07   +33 55 40.5   21.4
          24.59099    8 21 58.77   +33 55 48.8   21.5
          24.60205    8 21 58.49   +33 55 56.9   21.4

     2018 UT             R.A. (2000) Decl.       Mag.
     Jan. 13.46554    8 10 01.10   +37 46 54.5   21.4
          13.47624    8 10 00.60   +37 47 01.4   21.4
          13.48688    8 10 00.10   +37 47 07.7   21.3
          13.49752    8 09 59.59   +37 47 14.3   21.4

楕円道要素と位置推算表は次のとおり、

Orbital elements:
    P/2018 A5 (PANSTARRS)
Epoch 2017 Sept. 23.0 TT = JDT 2458019.5
T 2017 Sept. 23.83332 TT                                MPCW
q   2.6938284            (2000.0)            P               Q
n   0.07341041     Peri.  359.68262     +0.04294994     -0.91564693
a   5.6489051      Node    87.82928     +0.91751448     -0.12216726
e   0.5231238      Incl.   23.57627     +0.39537639     +0.38296980
P  13.43
From 30 observations 2017 Nov. 21-2018 Jan. 17, mean residual 0".3.

    P/2018 A5 (PANSTARRS)
Epoch 2031 Feb. 2.0 TT = JDT 2462899.5
T 2031 Feb. 2.42476 TT                                  MPCW
q   2.6820089            (2000.0)            P               Q
n   0.07380648     Peri.  359.53625     +0.04731868     -0.91522881
a   5.6286776      Node    87.71276     +0.91773884     -0.11832003
e   0.5235099      Incl.   23.60728     +0.39435563     +0.38517088
P  13.35
From 30 observations 2017 Nov. 21-2018 Jan. 17, mean residual 0".3.

Ephemeris:
    P/2018 A5 (PANSTARRS)
Date    TT    R. A. (2000) Decl.     Delta      r     Elong.  Phase   m1
2017 12 18    08 24 05.0 +32 34 32   1.9165  2.7694   143.4    12.2  20.8
...
2018 01 02    08 17 47.3 +35 38 18   1.8660  2.7975   157.0     7.9  20.8
...
2018 01 10    08 12 33.1 +37 10 03   1.8638  2.8141   161.6     6.3  20.8
...
2018 01 16    08 08 06.3 +38 12 25   1.8740  2.8273   162.4     6.0  20.9
2018 01 17    08 07 20.4 +38 22 08   1.8766  2.8296   162.2     6.1  20.9
2018 01 18    08 06 34.3 +38 31 39   1.8796  2.8318   162.0     6.2  20.9
...
2018 01 24    08 01 57.4 +39 24 02   1.9034  2.8458   159.4     7.0  20.9
...
2018 02 01    07 56 08.5 +40 20 29   1.9501  2.8653   153.4     8.9  21.0
...
2018 02 16    07 47 59.1 +41 24 21   2.0800  2.9046   139.7    12.7  21.2

(CBET 4478、MPEC 2018-B20)

スレッド表示 | 新しいものから 前のトピック | 次のトピック | トップ

投稿するにはまず登録を
 
© 1999 Tsutomu Seki.